Classement Corrida 2015

Classement Corrida d’Aywaille 2015

PlaceDossardNom SexePl./S. Pl./Cat.TempsVitesseMoyenne
1124CHARNIERChristianM1SE100:33:5517,7 km/h00:03:24
2103PAUQUETDamienM2SE200:35:0717,1 km/h00:03:31
3135FUDVOYEThibautM3SE300:35:2616,9 km/h00:03:33
4144LAFOURTEJeromeM4SE400:37:0216,2 km/h00:03:42
5189SCHOLZENChristopheM5SE500:37:2716,0 km/h00:03:45
6276VAESSENFrancoisM6SE600:37:3116,0 km/h00:03:45
7195DA SILVATonyM7SE700:37:3815,9 km/h00:03:46
8120GERARDXavierM8SE800:37:4915,9 km/h00:03:47
9143LAFOURTEAnthonyM9SE900:38:0615,7 km/h00:03:49
10224LEJEUNESylvainM10SE1000:39:0015,4 km/h00:03:54
11142GOFFARTLoicM11SE1100:39:0215,4 km/h00:03:54
12259NEUTELEERSEricM12V2100:39:0215,4 km/h00:03:54
13158DHONDTFredericM13V1100:39:0415,4 km/h00:03:54
14234DEJONGDanielM14V1200:39:1715,3 km/h00:03:56
15263GILBERTJeromeM15SE1200:39:2915,2 km/h00:03:57
16225MALOIRPierreM16V2200:39:5215,1 km/h00:03:59
17184GALLEDavidM17V1300:39:5415,0 km/h00:03:59
18181MOUSSEBOISEricM18SE1300:39:5915,0 km/h00:04:00
19123MATTARTEricM19V1400:40:3214,8 km/h00:04:03
20188JACOBChristopheM20SE1400:40:4114,7 km/h00:04:04
21216BASTINThibaultM21SE1500:41:0814,6 km/h00:04:07
22201BOURSDavidM22V1500:41:0914,6 km/h00:04:07
23185PIRONTBenoitM23SE1600:41:3914,4 km/h00:04:10
24235DEJONGAnthonyM24CA100:41:4114,4 km/h00:04:10
25232HAUSMANThomasM25SE1700:41:4814,4 km/h00:04:11
26278COUNETFrancoisM26SE1800:42:0614,3 km/h00:04:13
27244COCHETFrancoisM27JU100:42:2914,1 km/h00:04:15
28125DEMONCEAUFredericM28SE1900:42:3214,1 km/h00:04:15
29218DELVAJanickF1V1100:42:3914,1 km/h00:04:16
30286NOELJulienM29SE2000:42:4014,1 km/h00:04:16
31222SIMONJulienM30SE2100:42:5314,0 km/h00:04:17
32275COLLARDDavidM31SE2200:42:5814,0 km/h00:04:18
33200HORBACHJohanM32SE2300:43:0913,9 km/h00:04:19
34205DELEAUVirginieF2SE100:43:4513,7 km/h00:04:23
35240LEDOUXLucM33V2300:43:4913,7 km/h00:04:23
36255LAVALCharlesM34V1600:43:5113,7 km/h00:04:23
37211NOELArnaudM35SE2400:43:5313,7 km/h00:04:23
38155DEWARTGwenM36SE2500:44:2213,5 km/h00:04:26
39215ROMPENAlainM37V2400:44:3913,4 km/h00:04:28
40106BULTHUISSergeM38V2500:44:4013,4 km/h00:04:28
41192VAN VLAENDERENRaphaelM39V1700:45:0513,3 km/h00:04:31
42117HAOUCHINEHassnM40V1800:45:0513,3 km/h00:04:31
43148MOLLERSSebastienM41SE2600:45:1013,3 km/h00:04:31
44287LAMBERTJulienM42SE2700:45:1013,3 km/h00:04:31
45162PIRSONLaurentM43SE2800:45:1113,3 km/h00:04:31
46273GAVAGEStevieM44V5100:45:1113,3 km/h00:04:31
47110NUTALEmmanuelM45V1900:45:1513,3 km/h00:04:32
48112LEMAIREOlivierM46SE2900:45:1913,2 km/h00:04:32
49247THONONGuillaumeM47SE3000:45:2013,2 km/h00:04:32
50159BIEUVLETJeromeM48SE3100:45:2113,2 km/h00:04:32
51118GILSONGregoryM49SE3200:45:2313,2 km/h00:04:32
52160COLEMONTSGregoryM50SE3300:45:2513,2 km/h00:04:33
53272GILLESVivianM51V5200:45:2813,2 km/h00:04:33
54132VINCENTChristopheM52V11000:45:4313,1 km/h00:04:34
55131ORBANAlainM53V11100:45:4613,1 km/h00:04:35
56223KERSTENThomasM54SE3400:45:5813,1 km/h00:04:36
57170VAN ASNathalieF3V1200:46:2012,9 km/h00:04:38
58260LANGEBerengereF4SE200:46:3712,9 km/h00:04:40
59261CUIPERSFabriceM55V11200:46:3912,9 km/h00:04:40
60251JAMOYEJulienM56SE3500:48:5512,3 km/h00:04:54
61191FLAGOTHIERCarolineF5SE300:48:5612,3 km/h00:04:54
62128BODSONVeroniqueF6SE400:49:0012,2 km/h00:04:54
63172WILKINFrancoisM57SE3600:49:0112,2 km/h00:04:54
64134SALMONOlivierM58SE3700:49:0812,2 km/h00:04:55
65264ZAVAAllisonF7SE500:49:1412,2 km/h00:04:55
66149LEKEUGilbertM59V2600:49:1512,2 km/h00:04:55
67267MONTEFORTEAlexandreM60SE3800:49:2012,2 km/h00:04:56
68121SALMONThomasM61SE3900:49:2012,2 km/h00:04:56
69246BRUCCOLERIPaoloM62V2700:49:2112,2 km/h00:04:56
70141CHATELAINJean-MarcM63V11300:49:2212,2 km/h00:04:56
71186DEVIGNEGeoffreyM64SE4000:49:2812,1 km/h00:04:57
72168LAURENTMaximeM65JU200:49:3012,1 km/h00:04:57
73207WILLEMSPierreM66SE4100:49:3012,1 km/h00:04:57
74268MEUNIERVincentM67SE4200:49:3212,1 km/h00:04:57
75190GIELENJean-LouisM68V11400:49:4512,1 km/h00:04:59
76122LEROYJordanM69SE4300:49:5412,0 km/h00:04:59
77270HAULETNicolasM70SE4400:50:0112,0 km/h00:05:00
78237HUBINFrancoisM71V11500:50:0112,0 km/h00:05:00
79243TIMMERSLaurentM72SE4500:50:0312,0 km/h00:05:00
80178SCHROUBENJulieF8SE600:50:1112,0 km/h00:05:01
81204MINEURBenedicteF9SE700:50:2411,9 km/h00:05:02
82140MAGAMMurielF10V1300:50:3111,9 km/h00:05:03
83208ORBANJean-PierreM73V2800:50:3211,9 km/h00:05:03
84214THEODOREJeanM74V11600:50:3911,8 km/h00:05:04
85274BAUGNETDamienM75SE4600:50:4711,8 km/h00:05:05
86241COUNETNathanM76SE4700:50:5211,8 km/h00:05:05
87171MINGUETOlivierM77SE4800:51:0011,8 km/h00:05:06
88294KNUBBENOlivierM78SE4900:51:0111,8 km/h00:05:06
89285STERCKSArnaudM79V5300:51:0211,8 km/h00:05:06
90293DEDRYFlorenceF11SE800:51:0311,8 km/h00:05:06
91266LAPAGEFlorentM80SE5000:51:0611,7 km/h00:05:07
92169BEBRONNEFlorenceF12SE900:51:2011,7 km/h00:05:08
93153DERENNEPascalM81V11700:51:2311,7 km/h00:05:08
94199RAETSMartinM82SE5100:51:2611,7 km/h00:05:09
95269RAUWThomasM83SE5200:51:3111,6 km/h00:05:09
96289CARPENTIERThierryM84SE5300:51:3411,6 km/h00:05:09
97152VANDERHAEGENAdrienM85SE5400:51:4011,6 km/h00:05:10
98111MARQUETChristopheM86SE5500:51:4111,6 km/h00:05:10
99166PORTARODamienM87SE5600:51:5111,6 km/h00:05:11
100176VERHUSTMichelM88V11800:51:5511,6 km/h00:05:12
101177RONKARTPhilippeM89V11900:51:5511,6 km/h00:05:12
102202MARRAIBrunoM90V5400:52:0011,5 km/h00:05:12
103157FrereIsabelleF13SE1000:52:0611,5 km/h00:05:13
104136ZANZENFlorianM91SE5700:52:1711,5 km/h00:05:14
105193ZOESDyonissisM92SE5800:52:2311,5 km/h00:05:14
106242ADAMMurielleF14SE1100:52:2611,4 km/h00:05:15
107288CARPENTIERChristopheM93SE5900:52:3411,4 km/h00:05:15
108182FLAGOTHIERMelissaF15SE1200:52:4711,4 km/h00:05:17
109203REGIPONTPhilippeM94V2900:52:5311,3 km/h00:05:17
110280RENAUDOlivierM95SE6000:53:1411,3 km/h00:05:19
111233DEMONCEAUCedricM96SE6100:53:1611,3 km/h00:05:20
112271LEONARDAndyM97SE6200:53:1811,3 km/h00:05:20
113119CHARLIERStephanieF16V5100:53:2111,2 km/h00:05:20
114292STEGENJulienM98SE6300:53:3611,2 km/h00:05:22
115279LISMONDEDelphineF17SE1300:53:4211,2 km/h00:05:22
116250BAILLYCoralineF18SE1400:53:5711,1 km/h00:05:24
117113RUTHValerieF19SE1500:54:0111,1 km/h00:05:24
118254DEVROUWFlorenceF20V1400:54:4411,0 km/h00:05:28
119231STREELLaurentM99SE6400:54:5210,9 km/h00:05:29
120151DEMONCEAUVirginieF21SE1600:54:5210,9 km/h00:05:29
121179SOMJALaureF22SE1700:54:5310,9 km/h00:05:29
122230STREELNicolasM100SE6500:54:5510,9 km/h00:05:30
123265BONNETMarcM101V21000:54:5910,9 km/h00:05:30
124133BOURCYSandrineF23SE1800:55:2010,8 km/h00:05:32
125219DEWECarolineF24SE1900:55:3310,8 km/h00:05:33
126127RAMACKERSAlainM102V3100:55:3910,8 km/h00:05:34
127139GAUDOCarloM103V12000:55:4810,8 km/h00:05:35
128277DMITRIEVANataliaF25V1500:56:0810,7 km/h00:05:37
129281MELINGregoryM104SE6600:56:1410,7 km/h00:05:37
130206MANCINIVirginieF26SE2000:56:2910,6 km/h00:05:39
131290ROGISTERMarieveF27SE2100:57:2710,4 km/h00:05:45
132291LEYENSPierreM105SE6700:57:2810,4 km/h00:05:45
133175PIRNAYClaudineF28SE2200:58:0510,3 km/h00:05:48
134248LAMALLEAuroreF29SE2300:58:0810,3 km/h00:05:49
135262CORNELISSabineF30SE2400:58:1010,3 km/h00:05:49
136154COLLIGNONMichaelM106V12100:58:3310,2 km/h00:05:51
137245HAESEBROUCKBenoitM107V12200:58:4110,2 km/h00:05:52
138164LECLOUXPhilippeM108V12300:58:4110,2 km/h00:05:52
139283LAGASSEEvaF31CA100:58:4210,2 km/h00:05:52
140226GABRIELDanyM109V21100:58:4210,2 km/h00:05:52
141163STOCKARTGenevievreF32SE2500:58:4210,2 km/h00:05:52
142130MORTEHANAurelieF33SE2600:58:5910,2 km/h00:05:54
143187STRAEMANSMelanieF34SE2700:59:0710,1 km/h00:05:55
144194MINGUETDenisM110SE6800:59:1010,1 km/h00:05:55
145161MINGUETChristelF35SE2800:59:2510,1 km/h00:05:56
146108BANNEUXChristelleF36V5200:59:3510,1 km/h00:05:58
147147ALBERTBenedicteF37V1600:59:3810,1 km/h00:05:58
148165BODSONSophieF38V1701:01:079,8 km/h00:06:07
149209NINANEYvesM111V21201:01:089,8 km/h00:06:07
150217CORNETFabienneF39V2101:02:119,6 km/h00:06:13
151126LEFEVREFrancoiseF40V1801:02:129,6 km/h00:06:13
152137FAUVILLECatherineF41SE2901:02:169,6 km/h00:06:14
153220VERLAINEAnne-FranceF42SE3001:02:179,6 km/h00:06:14
154213JADINNancyF43V1901:02:419,6 km/h00:06:16
155116JADINGeraldineF44V11001:02:479,6 km/h00:06:17
156183LEMAIREMartineF45V11101:02:519,5 km/h00:06:17
157229OOMSFranceF46V2201:03:449,4 km/h00:06:22
158228LHOESTAnneF47V11201:03:459,4 km/h00:06:22
159129LALLEMENTNicoleF48V2301:04:359,3 km/h00:06:28
160105RIXHONSophieF49SE3101:04:369,3 km/h00:06:28
161104CIMAROSTIJean-FrancoisM112SE6901:04:399,3 km/h00:06:28
162167LESENFANTSGustaveM113V3201:04:449,3 km/h00:06:28
163256AMENFlorenceF50SE3201:04:539,2 km/h00:06:29
164249HEMMERINMichaelM114V12401:04:539,2 km/h00:06:29
165257SOTTIAUXAuroreF51SE3301:04:569,2 km/h00:06:30
166282DECHAMPSNathalieF52V11301:05:089,2 km/h00:06:31
167284MAHYSabineF53V11401:05:099,2 km/h00:06:31
168173TRAMONTENathalieF54SE3401:05:209,2 km/h00:06:32
169138BOREUXAgnesF55V11501:05:229,2 km/h00:06:32
170197COLARDSandrineF56SE3501:05:309,2 km/h00:06:33
171198FRAIKINRenaudM115SE7001:05:319,2 km/h00:06:33
172221VAMMIMaurineF57SE3601:05:339,2 km/h00:06:33
173210ROUSSELVeroniqueF58V11601:05:359,1 km/h00:06:33
174239DELCOMINETTECindyF59SE3701:06:109,1 km/h00:06:37
175238VANRUMBEKEHeleneF60SE3801:06:119,1 km/h00:06:37
176115KAISERNadjaF61V11701:08:358,7 km/h00:06:51
177107BEMELMANSVanessaF62SE3901:09:218,7 km/h00:06:56
178227GILETElisabethF63V11801:09:228,6 km/h00:06:56
179114CORBAYSandrinaF64V5301:09:368,6 km/h00:06:58
180101LIBERTThomasM116SE7101:09:478,6 km/h00:06:59
181102DERWAKarinF65V11901:09:578,6 km/h00:07:00
182212PONCELETCatherineF66SE4001:09:588,6 km/h00:07:00
183150CABARTEUXNancyF67V12001:10:038,6 km/h00:07:00
184145ISTASCarineF68V2401:10:108,6 km/h00:07:01
185253PIRARDOlivierM117V12501:10:328,5 km/h00:07:03
186252CONSTANTVincianeF69V12101:10:378,5 km/h00:07:04
187174DefosseStephanieF70SE4101:11:228,4 km/h00:07:08
188180GILBERTChloeF71ES101:11:498,4 km/h00:07:11
189146CORNIERJocelyneF72V3101:12:328,3 km/h00:07:15

Titre